Location: Asbacherhof
(48.8543°N, 10.7903°E)
Time: 16:27:21
(UTC+00:00)

Cosmos 1674 Rocket - Pass Details

Date: 26 May 2022
Orbit: 603 x 629 km, 82.5° (Epoch: 06 July)

Event Time Altitude Azimuth Distance (km) Brightness Sun altitude
Exits shadow 00:06:58 41° 222° (SW) 886 3.9 -19.1°
Maximum altitude 00:08:15 61° 282° (WNW) 695 3.7 -19.0°
Drops below altitude 10° 00:12:33 10° 3° (N) 1,964 7.3 -18.8°
Sets 00:14:48 0° 7° (N) 2,871 8.6 -18.7°
